| time (UTC) | temp F | wind direction | speed MPH | gust MPH | rain 1hr in | rain 24hr in | rain mn in | humidity % | barometer mb |
| 20260504174553 | 54 | 281 | 14.0 | 37.0 | 0.00 | 0.62 | 0.00 | 52 | 1002.2 |
| 20260504173055 | 54 | 175 | 16.0 | 28.0 | 0.00 | 0.62 | 0.00 | 53 | 1002.0 |
| 20260504171556 | 53 | 230 | 16.0 | 32.0 | 0.00 | 0.62 | 0.00 | 52 | 1001.8 |
| 20260504170107 | 54 | 312 | 17.0 | 29.0 | 0.00 | 0.62 | 0.00 | 54 | 1001.7 |
| 20260504140104 | 44 | 232 | 17.0 | 30.0 | 0.00 | 0.62 | 0.00 | 84 | 1000.6 |
| 20260504081555 | 36 | 283 | 18.0 | 31.0 | 0.00 | 0.62 | 0.00 | 91 | 990.3 |
| 20260504060105 | 36 | 271 | 14.0 | 33.0 | 0.00 | 0.62 | 0.00 | 92 | 985.1 |
| 20260504050123 | 36 | 289 | 15.0 | 30.0 | 0.00 | 0.62 | 0.00 | 92 | 983.1 |
| 20260504044555 | 37 | 270 | 13.0 | 31.0 | 0.00 | 0.62 | 0.00 | 92 | 982.5 |
| 20260504043101 | 37 | 302 | 13.0 | 26.0 | 0.00 | 0.62 | 0.00 | 92 | 982.0 |
| 20260504041559 | 38 | 276 | 12.0 | 24.0 | 0.00 | 0.62 | 0.00 | 92 | 981.4 |
| 20260504040113 | 38 | 250 | 12.0 | 25.0 | 0.00 | 0.62 | 0.00 | 92 | 981.0 |
| 20260504034611 | 38 | 227 | 9.0 | 20.0 | 0.00 | 0.62 | 0.00 | 92 | 980.1 |
| 20260504033059 | 38 | 260 | 10.0 | 20.0 | 0.00 | 0.62 | 0.00 | 93 | 979.4 |
| 20260504031611 | 38 | 260 | 11.0 | 20.0 | 0.00 | 0.62 | 0.00 | 93 | 978.4 |
| 20260504030112 | 39 | 296 | 10.0 | 23.0 | 0.01 | 0.62 | 0.00 | 93 | 977.6 |
| 20260504024555 | 39 | 298 | 10.0 | 18.0 | 0.02 | 0.62 | 0.62 | 94 | 976.7 |
| 20260504023055 | 39 | 281 | 9.0 | 15.0 | 0.02 | 0.61 | 0.61 | 94 | 976.3 |
| 20260504021610 | 39 | 282 | 8.0 | 14.0 | 0.03 | 0.61 | 0.61 | 94 | 975.2 |
| 20260504020057 | 38 | 343 | 5.0 | 10.0 | 0.03 | 0.60 | 0.60 | 94 | 974.6 |
| 20260504014600 | 38 | 325 | 5.0 | 11.0 | 0.02 | 0.59 | 0.59 | 94 | 974.4 |
| 20260504013103 | 38 | 20 | 5.0 | 13.0 | 0.01 | 0.59 | 0.59 | 93 | 974.1 |
| 20260504011600 | 38 | 5 | 8.0 | 17.0 | 0.00 | 0.58 | 0.58 | 93 | 974.5 |
| 20260504010059 | 38 | 83 | 11.0 | 18.0 | 0.00 | 0.57 | 0.57 | 93 | 975.1 |
| 20260504004559 | 39 | 100 | 8.0 | 21.0 | 0.00 | 0.57 | 0.57 | 93 | 975.8 |
| 20260504003100 | 39 | 95 | 10.0 | 16.0 | 0.00 | 0.57 | 0.57 | 93 | 976.6 |
| 20260504001608 | 40 | 99 | 8.0 | 15.0 | 0.02 | 0.57 | 0.57 | 93 | 977.9 |
| 20260504000138 | 40 | 95 | 9.0 | 18.0 | 0.02 | 0.56 | 0.56 | 94 | 978.5 |
| 20260503234604 | 41 | 90 | 13.0 | 24.0 | 0.03 | 0.56 | 0.56 | 94 | 979.0 |
| 20260503233103 | 40 | 100 | 11.0 | 32.0 | 0.04 | 0.56 | 0.56 | 94 | 979.6 |
| 20260503231559 | 39 | 86 | 16.0 | 34.0 | 0.03 | 0.55 | 0.55 | 93 | 980.6 |
| 20260503230059 | 39 | 86 | 20.0 | 41.0 | 0.03 | 0.54 | 0.54 | 93 | 981.2 |
| 20260503224554 | 40 | 56 | 21.0 | 43.0 | 0.03 | 0.52 | 0.52 | 93 | 981.8 |
| 20260503223059 | 39 | 66 | 20.0 | 41.0 | 0.03 | 0.51 | 0.51 | 93 | 982.8 |
| 20260503221557 | 39 | 59 | 23.0 | 44.0 | 0.05 | 0.51 | 0.51 | 93 | 983.8 |
| 20260503220059 | 39 | 74 | 21.0 | 39.0 | 0.07 | 0.50 | 0.50 | 93 | 985.0 |
| 20260503214555 | 38 | 48 | 22.0 | 39.0 | 0.09 | 0.49 | 0.49 | 93 | 985.7 |
| 20260503213055 | 38 | 102 | 22.0 | 37.0 | 0.10 | 0.48 | 0.48 | 93 | 986.9 |
| 20260503211556 | 37 | 70 | 22.0 | 35.0 | 0.10 | 0.45 | 0.45 | 93 | 987.6 |
| 20260503210054 | 37 | 37 | 16.0 | 39.0 | 0.14 | 0.42 | 0.42 | 93 | 988.9 |
| 20260503204556 | 37 | 46 | 19.0 | 35.0 | 0.18 | 0.40 | 0.40 | 93 | 989.9 |
| 20260503203101 | 36 | 91 | 20.0 | 42.0 | 0.18 | 0.37 | 0.37 | 93 | 990.7 |
| 20260503201600 | 36 | 69 | 19.0 | 33.0 | 0.20 | 0.35 | 0.35 | 93 | 991.8 |
| 20260503200100 | 36 | 58 | 16.0 | 37.0 | 0.14 | 0.27 | 0.27 | 93 | 992.5 |
| 20260503194603 | 37 | 58 | 21.0 | 34.0 | 0.12 | 0.22 | 0.22 | 93 | 992.8 |
| 20260503193059 | 37 | 64 | 21.0 | 39.0 | 0.12 | 0.18 | 0.18 | 93 | 993.9 |
| 20260503191555 | 37 | 23 | 23.0 | 39.0 | 0.11 | 0.14 | 0.14 | 93 | 995.7 |
| 20260503190053 | 38 | 48 | 17.0 | 40.0 | 0.11 | 0.12 | 0.12 | 93 | 996.6 |
| 20260503184611 | 38 | 43 | 15.0 | 29.0 | 0.08 | 0.09 | 0.09 | 93 | 997.2 |
| 20260503183102 | 39 | 61 | 16.0 | 29.0 | 0.06 | 0.06 | 0.06 | 93 | 997.4 |
| 20260503181556 | 39 | 73 | 18.0 | 31.0 | 0.03 | 0.03 | 0.03 | 93 | 998.0 |
| 20260503180059 | 39 | 75 | 16.0 | 33.0 | 0.01 | 0.01 | 0.01 | 93 | 998.5 |